GW4005 Weather Reports


time (UTC)temp
F
wind
direction
speed
knots
gust
knots
rain 1hr
in
rain 24hr
in
rain mn
in
humidity
%
barometer
mb
20260504232015 52 193 6.1 14.8 0.00 0.07 0.00 67 1005.9
20260504231531 52 212 6.1 14.8 0.00 0.07 0.00 67 1005.8
20260504231019 52 166 5.2 10.4 0.00 0.07 0.00 67 1005.8
20260504230514 52 171 3.5 11.3 0.00 0.07 0.00 66 1005.7
20260504230033 52 195 4.3 13.9 0.00 0.07 0.00 66 1005.6
20260504225517 53 164 5.2 13.9 0.00 0.20 0.00 66 1005.4
20260504225015 53 185 5.2 14.8 0.00 0.20 0.00 65 1005.3
20260504224530 53 195 7.0 14.8 0.00 0.20 0.00 64 1005.3
20260504224018 53 198 7.0 14.8 0.00 0.20 0.00 64 1005.2
20260504223514 53 222 6.1 14.8 0.00 0.20 0.00 64 1005.2
20260504223032 53 209 6.1 14.8 0.00 0.20 0.00 64 1005.2
20260504222515 52 211 6.1 16.5 0.00 0.20 0.00 65 1005.2
20260504222014 52 184 6.1 19.1 0.00 0.20 0.00 65 1005.1
20260504221536 51 243 7.8 19.1 0.00 0.20 0.00 66 1005.1
20260504221014 51 183 7.0 15.6 0.00 0.20 0.00 67 1005.2
20260504220514 50 205 7.0 16.5 0.00 0.20 0.00 69 1005.1
20260504220045 50 253 6.1 16.5 0.00 0.20 0.00 70 1005.2
20260504215518 49 167 7.8 16.5 0.00 0.31 0.00 71 1005.1
20260504215017 49 178 6.1 14.8 0.00 0.31 0.00 72 1005.2
20260504214536 49 202 6.1 14.8 0.00 0.31 0.00 72 1005.3
20260504214014 49 199 5.2 13.0 0.00 0.31 0.00 71 1005.4
20260504213514 49 168 6.1 14.8 0.00 0.31 0.00 71 1005.4
20260504213041 50 191 6.1 16.5 0.00 0.31 0.00 70 1005.4
20260504212514 50 181 7.0 16.5 0.00 0.31 0.00 69 1005.3
20260504212017 50 236 7.0 18.2 0.00 0.31 0.00 67 1005.2
20260504211539 51 199 8.7 19.1 0.00 0.31 0.00 66 1005.4
20260504211014 51 210 7.8 20.0 0.00 0.31 0.00 65 1005.4
20260504210516 51 162 7.8 20.0 0.00 0.31 0.00 65 1005.5
20260504210033 51 171 7.8 25.2 0.00 0.31 0.00 65 1005.2
20260504205515 51 247 9.6 25.2 0.00 0.38 0.00 65 1005.1
20260504205014 51 238 10.4 23.5 0.00 0.38 0.00 65 1005.1
20260504204540 51 135 8.7 23.5 0.00 0.38 0.00 67 1005.1
20260504204015 51 199 9.6 26.9 0.00 0.38 0.00 68 1005.0
20260504203517 50 212 11.3 26.9 0.00 0.38 0.00 69 1005.0
20260504203033 49 250 8.7 23.5 0.00 0.38 0.00 72 1005.0
20260504202516 48 203 8.7 23.5 0.00 0.38 0.00 74 1005.0
20260504202015 47 176 9.6 22.6 0.00 0.38 0.00 76 1005.1
20260504201533 48 214 10.4 21.7 0.00 0.38 0.00 74 1005.2
20260504201014 49 219 8.7 20.9 0.00 0.38 0.00 73 1005.1
20260504200514 48 198 11.3 20.9 0.00 0.38 0.00 76 1005.1
20260504200033 47 254 7.0 20.9 0.00 0.38 0.00 77 1005.0
20260504195514 48 208 6.1 17.4 0.00 0.48 0.00 76 1005.2
20260504195015 48 256 6.1 22.6 0.00 0.48 0.00 76 1005.1
20260504194532 48 256 7.8 22.6 0.00 0.48 0.00 76 1005.0
20260504194015 48 231 7.0 19.1 0.00 0.48 0.00 76 1004.9
20260504193515 47 192 8.7 15.6 0.00 0.48 0.00 75 1004.8
20260504193031 48 175 8.7 18.2 0.00 0.48 0.00 75 1004.8
20260504192514 48 218 7.0 18.2 0.00 0.48 0.00 73 1004.8
20260504192014 49 194 8.7 16.5 0.00 0.48 0.00 73 1004.7
20260504191535 50 220 7.8 16.5 0.00 0.48 0.00 72 1004.7
20260504191014 50 137 7.0 16.5 0.00 0.48 0.00 73 1004.8
20260504190518 49 233 6.1 15.6 0.00 0.48 0.00 73 1004.6
20260504190034 48 225 7.0 13.9 0.00 0.48 0.00 72 1004.7
20260504185515 48 240 7.0 17.4 0.00 0.56 0.00 72 1004.7
20260504185019 48 179 7.0 17.4 0.00 0.56 0.00 71 1004.7
20260504184530 49 216 7.0 15.6 0.00 0.56 0.00 69 1004.8
20260504184017 50 231 6.1 15.6 0.00 0.56 0.00 68 1004.8
20260504183516 50 184 7.0 16.5 0.00 0.56 0.00 68 1004.9
20260504183036 50 106 7.0 16.5 0.00 0.56 0.00 67 1004.9
20260504182514 50 258 7.8 20.0 0.00 0.56 0.00 69 1004.9
20260504182016 49 232 8.7 20.0 0.00 0.56 0.00 68 1004.9
20260504181535 50 178 7.0 20.0 0.00 0.56 0.00 68 1005.0
20260504181015 50 218 5.2 17.4 0.00 0.56 0.00 67 1005.0
20260504180514 49 249 6.1 17.4 0.00 0.56 0.00 67 1005.0
20260504180045 49 191 7.8 17.4 0.00 0.56 0.00 67 1004.9
20260504175517 49 206 6.1 16.5 0.00 0.73 0.00 69 1005.0
20260504175017 49 205 6.1 17.4 0.00 0.73 0.00 70 1005.0
20260504174531 49 187 6.1 20.0 0.00 0.73 0.00 71 1005.0
20260504174014 48 210 7.8 20.0 0.00 0.73 0.00 71 1005.1
20260504173514 48 197 8.7 17.4 0.00 0.73 0.00 71 1005.0
20260504173032 48 179 7.8 17.4 0.00 0.73 0.00 70 1005.0
20260504172514 48 215 6.1 17.4 0.00 0.73 0.00 70 1005.0
20260504172019 49 243 7.0 18.2 0.00 0.73 0.00 70 1005.0
20260504171530 48 119 7.0 19.1 0.00 0.73 0.00 68 1005.1
20260504171017 48 286 8.7 19.1 0.00 0.73 0.00 68 1005.1
20260504170515 48 200 7.0 16.5 0.00 0.73 0.00 68 1005.1
20260504151016 46 216 8.7 21.7 0.00 1.31 0.00 76 1005.6
20260504150517 46 202 7.8 17.4 0.00 1.31 0.00 76 1005.6
20260504141015 44 213 8.7 20.0 0.00 1.38 0.00 75 1005.8
20260504140516 44 200 7.0 20.0 0.00 1.38 0.00 76 1005.8
20260504130516 42 206 9.6 20.0 0.00 1.38 0.00 80 1005.1
20260504110516 40 186 7.0 20.9 0.00 1.38 0.00 86 1003.2
20260504100514 40 239 6.1 18.2 0.00 1.38 0.00 89 1002.4
20260504081609 40 320 5.2 12.2 0.00 1.38 0.00 91 999.8
20260504081015 40 197 3.5 13.0 0.00 1.38 0.00 91 999.8
20260504080514 40 198 5.2 13.0 0.00 1.38 0.00 91 999.8
20260504050515 39 307 8.7 20.0 0.00 1.38 0.00 92 997.5
20260504045515 39 283 12.2 20.9 0.00 1.38 0.00 92 997.3
20260504045015 39 288 12.2 20.0 0.00 1.38 0.00 92 997.2
20260504044537 39 279 12.2 20.9 0.00 1.38 0.00 92 997.1
20260504044017 39 283 13.0 20.9 0.00 1.38 0.00 91 997.1
20260504043515 38 333 12.2 20.9 0.00 1.38 0.00 92 996.9
20260504043041 38 288 12.2 20.9 0.00 1.38 0.00 91 996.8
20260504042516 38 306 9.6 22.6 0.00 1.38 0.00 91 996.8
20260504042017 38 328 12.2 22.6 0.00 1.38 0.00 91 996.7
20260504041532 38 319 12.2 21.7 0.00 1.38 0.00 91 996.7
20260504041015 38 329 10.4 21.7 0.00 1.38 0.00 91 996.6
20260504040515 38 307 9.6 24.3 0.00 1.38 0.00 91 996.6
20260504040029 38 320 10.4 24.3 0.00 1.38 0.00 91 996.6
20260504035516 38 316 9.6 20.0 0.00 1.38 0.00 91 996.5
20260504035015 38 316 9.6 20.0 0.00 1.38 0.00 91 996.5
20260504034531 38 308 9.6 21.7 0.00 1.38 0.00 91 996.4
20260504034014 38 342 9.6 22.6 0.00 1.38 0.00 91 996.3
20260504033517 38 4 10.4 22.6 0.00 1.38 0.00 91 996.1
20260504033030 38 358 9.6 22.6 0.00 1.38 0.00 91 996.1
20260504032517 38 339 10.4 22.6 0.00 1.38 0.00 91 996.1
20260504032015 38 354 11.3 21.7 0.00 1.38 0.00 91 996.0
20260504031530 38 348 10.4 20.0 0.00 1.38 0.00 91 995.9
20260504031015 38 318 11.3 20.0 0.00 1.38 0.00 91 995.8
20260504030514 38 341 10.4 20.0 0.00 1.38 0.00 91 995.6
20260504030030 38 335 11.3 20.0 0.00 1.38 0.00 91 995.5
20260504025515 38 339 10.4 17.4 0.00 1.38 1.38 91 995.5
20260504025015 38 352 11.3 20.0 0.00 1.38 1.38 91 995.4
20260504024532 38 343 10.4 21.7 0.00 1.38 1.38 91 995.4
20260504024014 38 355 13.9 21.7 0.00 1.38 1.38 91 995.2
20260504023514 38 330 11.3 21.7 0.00 1.38 1.38 92 995.1
20260504023029 38 23 10.4 22.6 0.00 1.38 1.38 91 995.0
20260504022514 38 329 12.2 23.5 0.00 1.38 1.38 91 995.0
20260504022019 38 356 13.9 29.5 0.00 1.38 1.38 91 994.8
20260504021536 37 4 14.8 29.5 0.00 1.38 1.38 91 994.8
20260504021017 37 355 13.9 24.3 0.00 1.38 1.38 91 994.7
20260504020515 37 340 14.8 24.3 0.00 1.38 1.38 91 994.6
20260504020037 37 322 13.9 22.6 0.00 1.38 1.38 91 994.4
20260504015517 38 21 13.9 23.5 0.00 1.38 1.38 91 994.4
20260504015015 38 5 14.8 23.5 0.00 1.38 1.38 91 994.3
20260504014537 38 15 13.9 23.5 0.00 1.38 1.38 91 994.2
20260504014014 38 8 13.9 27.8 0.00 1.38 1.38 91 994.2
20260504013517 38 352 16.5 29.5 0.00 1.38 1.38 91 994.1
20260504013031 38 34 16.5 29.5 0.00 1.38 1.38 91 994.0
20260504012516 38 15 17.4 30.4 0.00 1.38 1.38 91 993.9
20260504012015 37 25 17.4 30.4 0.00 1.38 1.38 91 993.8
20260504011534 37 14 18.2 35.6 0.00 1.38 1.38 91 993.7
20260504011014 37 15 20.0 35.6 0.00 1.38 1.38 92 993.6
20260504010516 37 29 19.1 35.6 0.01 1.38 1.38 92 993.6
20260504010029 37 274 20.0 29.5 0.01 1.38 1.38 92 993.6
20260504005514 37 37 20.0 29.5 0.01 1.38 1.38 92 993.4
20260504005015 36 341 18.2 29.5 0.01 1.38 1.38 92 993.4
20260504004534 36 7 16.5 33.0 0.01 1.38 1.38 92 993.4
20260504004014 36 8 17.4 34.8 0.01 1.38 1.38 92 993.4
20260504003516 36 10 15.6 34.8 0.01 1.38 1.38 92 993.2
20260504003030 37 33 15.6 29.5 0.01 1.38 1.38 92 993.2
20260504002517 37 6 12.2 29.5 0.02 1.38 1.38 92 993.1
20260504002017 37 11 15.6 28.7 0.03 1.38 1.38 92 993.0
20260504001535 37 33 13.9 25.2 0.04 1.38 1.38 92 993.0
20260504001015 37 340 15.6 27.8 0.04 1.37 1.37 92 993.0
20260504000514 37 42 16.5 27.8 0.05 1.37 1.37 92 992.9
20260504000032 37 23 14.8 27.8 0.06 1.37 1.37 92 992.9
20260503235519 37 31 14.8 24.3 0.06 1.37 1.37 92 992.9
20260503235016 37 54 14.8 23.5 0.06 1.37 1.37 92 992.8
20260503234530 37 56 13.9 26.9 0.07 1.37 1.37 93 992.8
20260503234016 36 37 13.9 26.9 0.09 1.37 1.37 92 992.8
20260503233516 36 360 13.9 26.9 0.11 1.37 1.37 92 992.8
20260503233033 37 341 13.9 26.9 0.13 1.37 1.37 92 992.6
20260503232515 37 58 13.9 26.9 0.14 1.36 1.36 92 992.5